This demonstration page uses our WeatherBlox Daily Observations layout. Learn more.

Left ArrowRight Arrow

41.12389, -100.76542

Hourly Observations for January 19, 2022

Temp ( °F °C ) Dew Point ( °F °C ) Humidity (%) Winds ( mph kmh ) Pressure ( in mb ) Visibility ( mi km ) Precip ( " mm )
12:53 am 00:53 Cloudy 26 -3.3 14 -10 60 60 N 20 31 30.15 1021 10 16 0.00 0.00
1:53 am 01:53 Cloudy 24 -4.4 11 -11.7 57 57 N 18 30 30.19 1022 10 16 0.00 0.00
2:53 am 02:53 Cloudy 21 -6.1 9 -12.8 59 59 N 12 19 30.22 1023 10 16 0.00 0.00
3:45 am 03:45 Cloudy 21 -6.1 11 -11.7 65 65 N 14 22 30.39 1029 10 16 0.00 0.00
3:53 am 03:53 Cloudy 21 -6.1 11 -11.7 65 65 N 17 28 30.25 1024 10 16 0.00 0.00
4:15 am 04:15 Cloudy 20 -6.7 8 -13.3 60 60 N 17 28 30.41 1030 10 16 0.00 0.00
4:53 am 04:53 Cloudy 19 -7.2 7 -13.9 59 59 N 12 19 30.29 1026 10 16 0.00 0.00
5:53 am 05:53 Cloudy with Light Snow 17 -8.3 8 -13.3 68 68 N 16 26 30.33 1027 5 8 0.00 0.00
6:53 am 06:53 Cloudy 16 -8.9 4 -15.6 59 59 N 18 30 30.37 1028 10 16 0.00 0.00
7:53 am 07:53 Cloudy 16 -8.9 4 -15.6 59 59 N 20 31 30.41 1030 10 16 0.00 0.00
8:53 am 08:53 Cloudy 15 -9.4 4 -15.6 61 61 N 13 20 30.46 1032 10 16 0.00 0.00
9:53 am 09:53 Cloudy 14 -10 1 -17.2 56 56 N 15 24 30.51 1033 10 16 0.00 0.00
10:53 am 10:53 Cloudy 15 -9.4 0 -17.8 51 51 NNW 20 31 30.54 1034 10 16 0.00 0.00
11:53 am 11:53 Cloudy 15 -9.4 -2 -18.9 46 46 N 16 26 30.56 1035 10 16 0.00 0.00
12:53 pm 12:53 Cloudy 16 -8.9 -3 -19.4 43 43 N 14 22 30.56 1035 10 16 0.00 0.00
1:53 pm 13:53 Cloudy 17 -8.3 -3 -19.4 41 41 N 13 20 30.55 1035 10 16 0.00 0.00
2:53 pm 14:53 Cloudy 18 -7.8 -3 -19.4 39 39 NNW 16 26 30.57 1035 10 16 0.00 0.00
3:53 pm 15:53 Sunny 18 -7.8 -3 -19.4 39 39 N 12 19 30.58 1035 10 16 0.00 0.00
4:53 pm 16:53 Sunny 15 -9.4 -4 -20 42 42 N 12 19 30.61 1037 10 16 0.00 0.00
5:53 pm 17:53 Clear 14 -10 -3 -19.4 47 47 N 7 11 30.62 1037 10 16 0.00 0.00
6:53 pm 18:53 Clear 10 -12.2 -2 -18.9 58 58 NNW 6 9 30.66 1038 10 16 0.00 0.00
7:53 pm 19:53 Clear 9 -12.8 -2 -18.9 61 61 NNE 7 11 30.68 1039 10 16 0.00 0.00
8:53 pm 20:53 Mostly Cloudy 11 -11.7 -3 -19.4 53 53 NNE 7 11 30.70 1040 10 16 0.00 0.00
9:53 pm 21:53 Cloudy 11 -11.7 -4 -20 51 51 N 10 17 30.70 1040 10 16 0.00 0.00
10:53 pm 22:53 Cloudy 8 -13.3 -4 -20 57 57 N 3 6 30.71 1040 10 16 0.00 0.00
11:53 pm 23:53 Clear 5 -15 -5 -20.6 63 63 Calm 30.72 1040 10 16 0.00 0.00

Powered by AerisWeather